STARLINK-2007 (47602 NORAD) Tracking and Keplerian Element Data

This shows tracking and keplerian element data for the satellite.

Feedback or suggestion? Click here.




ElementValue
Catalog47602
NameSTARLINK-2007
Epoch Orbit177
Epoch Day101.91668981
Epoch Year2021
RAAN157.5354
Inclination53.052
Eccentricity0.0004198
Argument of Perigee11.1947
Mean Anonmoly243.4065
Mean Motion15.62777931
Decay Rate0.00018203
L11 47602U 21009BG 21101.91668981 .00018203 00000-0 20396-3 0 9991
L22 47602 53.0520 157.5354 0004198 11.1947 243.4065 15.62777931 1778

Live tracking and technical data element details for STARLINK-2007 (NORAD 47602). STARLINK-2007 can be tracked NOW for your location showing map with azimuth and elevation plus other details from your city location.

Track the satellite on the map from your city or location and see movement details for azimuth, elevation, latitude, longitude, range, height, and movement on the map or in text.







IsCatalogInMostPopularTable: catalog: 47602, numindb: 19
Update: records affected: 1



GetName: 47602 STARLINK-2007

Hit Count: updated at: Tue, 13 Apr 2021 04:59:07 GMT